contact:dominique.lefevre@mio.osupytheas.fr, maurice.libes@osupytheas.fr, didier.mallarino@osupytheas.fr
Project:EMSO http://www.emso-fr.org/EMSO-France
Depth: 2436.0 m
Title:EMSO Ligure Ouest : Data MII capteur MICROCAT
DateTime_Computer,Latitude,Longitude,Temperature,Conductivity,Pressure,DateTime_Instrument
DateTime_Computer,Latitude,Longitude,degC,S m-1,dbar,DateTime_Instrument
2019-07-17T12:03:08Z,42.805,6.029,13.2961,4.59969,2469.783,2019-7-17T14:03:26Z
2019-07-17T12:06:11Z,42.805,6.029,13.2985,4.59974,2469.783,2019-7-17T14:06:29Z
2019-07-17T12:09:14Z,42.805,6.029,13.2976,4.59976,2469.76,2019-7-17T14:09:32Z
2019-07-17T12:12:17Z,42.805,6.029,13.2968,4.59980,2469.797,2019-7-17T14:12:36Z
2019-07-17T12:15:20Z,42.805,6.029,13.2964,4.59966,2469.797,2019-7-17T14:15:39Z
2019-07-17T12:18:24Z,42.805,6.029,13.2964,4.59973,2469.737,2019-7-17T14:18:42Z
2019-07-17T12:21:27Z,42.805,6.029,13.2974,4.59971,2469.797,2019-7-17T14:21:45Z
2019-07-17T12:24:30Z,42.805,6.029,13.2978,4.59971,2469.797,2019-7-17T14:24:48Z
2019-07-17T12:27:33Z,42.805,6.029,13.2983,4.59982,2469.797,2019-7-17T14:27:52Z
2019-07-17T12:30:36Z,42.805,6.029,13.2979,4.59975,2469.797,2019-7-17T14:30:55Z
2019-07-17T12:33:39Z,42.805,6.029,13.2982,4.59968,2469.783,2019-7-17T14:33:58Z
2019-07-17T12:36:43Z,42.805,6.029,13.2976,4.59980,2469.773,2019-7-17T14:37:01Z
2019-07-17T12:39:46Z,42.805,6.029,13.2968,4.59990,2469.797,2019-7-17T14:40:04Z
2019-07-17T12:42:49Z,42.805,6.029,13.2976,4.59980,2469.773,2019-7-17T14:43:08Z
2019-07-17T12:45:52Z,42.805,6.029,13.2984,4.59981,2469.783,2019-7-17T14:46:11Z
2019-07-17T12:48:55Z,42.805,6.029,13.2982,4.59979,2469.797,2019-7-17T14:49:14Z
2019-07-17T12:51:59Z,42.805,6.029,13.2976,4.59993,2469.76,2019-7-17T14:52:17Z
2019-07-17T12:55:02Z,42.805,6.029,13.3001,4.59974,2469.75,2019-7-17T14:55:20Z
2019-07-17T12:58:05Z,42.805,6.029,13.2983,4.59973,2469.773,2019-7-17T14:58:24Z
2019-07-17T13:01:08Z,42.805,6.029,13.2968,4.59975,2469.773,2019-7-17T15:01:27Z
2019-07-17T13:04:12Z,42.805,6.029,13.2972,4.59978,2469.773,2019-7-17T15:04:30Z
2019-07-17T13:07:15Z,42.805,6.029,13.2972,4.59980,2469.76,2019-7-17T15:07:33Z
2019-07-17T13:10:18Z,42.805,6.029,13.2974,4.59975,2469.76,2019-7-17T15:10:36Z
2019-07-17T13:13:21Z,42.805,6.029,13.2988,4.59989,2469.76,2019-7-17T15:13:40Z
2019-07-17T13:16:24Z,42.805,6.029,13.2964,4.59978,2469.75,2019-7-17T15:16:43Z
2019-07-17T13:19:28Z,42.805,6.029,13.2979,4.59987,2469.773,2019-7-17T15:19:46Z
2019-07-17T13:22:31Z,42.805,6.029,13.2983,4.60009,2469.797,2019-7-17T15:22:49Z
2019-07-17T13:25:34Z,42.805,6.029,13.2971,4.59998,2469.797,2019-7-17T15:25:53Z
2019-07-17T13:28:37Z,42.805,6.029,13.2970,4.59978,2469.783,2019-7-17T15:28:56Z
2019-07-17T13:31:41Z,42.805,6.029,13.2968,4.59999,2469.783,2019-7-17T15:31:59Z
2019-07-17T13:34:44Z,42.805,6.029,13.2973,4.59980,2469.76,2019-7-17T15:35:02Z
2019-07-17T13:37:47Z,42.805,6.029,13.2982,4.59994,2469.773,2019-7-17T15:38:05Z
2019-07-17T13:40:50Z,42.805,6.029,13.2980,4.59996,2469.806,2019-7-17T15:41:09Z
2019-07-17T13:43:53Z,42.805,6.029,13.2993,4.60001,2469.797,2019-7-17T15:44:12Z
2019-07-17T13:46:57Z,42.805,6.029,13.2975,4.59997,2469.75,2019-7-17T15:47:15Z
2019-07-17T13:50:00Z,42.805,6.029,13.2991,4.59969,2469.76,2019-7-17T15:50:18Z
2019-07-17T13:53:03Z,42.805,6.029,13.2992,4.59991,2469.76,2019-7-17T15:53:22Z
2019-07-17T13:56:06Z,42.805,6.029,13.2980,4.59981,2469.783,2019-7-17T15:56:25Z
2019-07-17T13:59:10Z,42.805,6.029,13.2983,4.59983,2469.76,2019-7-17T15:59:28Z
2019-07-17T14:02:13Z,42.805,6.029,13.2978,4.59978,2469.737,2019-7-17T16:02:31Z
2019-07-17T14:05:16Z,42.805,6.029,13.2982,4.59990,2469.76,2019-7-17T16:05:34Z
2019-07-17T14:08:19Z,42.805,6.029,13.2997,4.60005,2469.797,2019-7-17T16:08:38Z
2019-07-17T14:11:22Z,42.805,6.029,13.2979,4.59975,2469.773,2019-7-17T16:11:41Z
2019-07-17T14:14:25Z,42.805,6.029,13.2976,4.59970,2469.737,2019-7-17T16:14:44Z
2019-07-17T14:17:29Z,42.805,6.029,13.2980,4.59988,2469.76,2019-7-17T16:17:47Z
2019-07-17T14:20:32Z,42.805,6.029,13.2986,4.59995,2469.727,2019-7-17T16:20:50Z
2019-07-17T14:23:35Z,42.805,6.029,13.2981,4.59989,2469.773,2019-7-17T16:23:54Z
2019-07-17T14:26:38Z,42.805,6.029,13.2999,4.59972,2469.76,2019-7-17T16:26:57Z
2019-07-17T14:29:41Z,42.805,6.029,13.2991,4.59974,2469.76,2019-7-17T16:30:00Z
2019-07-17T14:32:45Z,42.805,6.029,13.2975,4.59979,2469.773,2019-7-17T16:33:03Z
2019-07-17T14:35:48Z,42.805,6.029,13.2986,4.59973,2469.783,2019-7-17T16:36:06Z
2019-07-17T14:38:51Z,42.805,6.029,13.2996,4.59988,2469.797,2019-7-17T16:39:10Z
2019-07-17T14:41:54Z,42.805,6.029,13.2974,4.59976,2469.783,2019-7-17T16:42:13Z
2019-07-17T14:44:58Z,42.805,6.029,13.2990,4.59973,2469.783,2019-7-17T16:45:16Z
2019-07-17T14:48:01Z,42.805,6.029,13.2966,4.59975,2469.783,2019-7-17T16:48:19Z
2019-07-17T14:51:04Z,42.805,6.029,13.2986,4.59980,2469.737,2019-7-17T16:51:22Z
2019-07-17T14:54:07Z,42.805,6.029,13.2971,4.59977,2469.821,2019-7-17T16:54:26Z
2019-07-17T14:57:11Z,42.805,6.029,13.2981,4.59983,2469.821,2019-7-17T16:57:29Z
2019-07-17T15:00:14Z,42.805,6.029,13.2978,4.59988,2469.76,2019-7-17T17:00:32Z
2019-07-17T15:03:17Z,42.805,6.029,13.2978,4.59972,2469.806,2019-7-17T17:03:36Z
2019-07-17T15:06:20Z,42.805,6.029,13.2967,4.59990,2469.773,2019-7-17T17:06:39Z
2019-07-17T15:09:23Z,42.805,6.029,13.2976,4.59976,2469.844,2019-7-17T17:09:42Z
2019-07-17T15:12:27Z,42.805,6.029,13.2984,4.59990,2469.806,2019-7-17T17:12:45Z
2019-07-17T15:15:30Z,42.805,6.029,13.2971,4.59967,2469.797,2019-7-17T17:15:48Z
2019-07-17T15:18:33Z,42.805,6.029,13.2978,4.59985,2469.806,2019-7-17T17:18:51Z
2019-07-17T15:21:36Z,42.805,6.029,13.2985,4.59974,2469.806,2019-7-17T17:21:55Z
2019-07-17T15:24:39Z,42.805,6.029,13.2982,4.59986,2469.83,2019-7-17T17:24:58Z
2019-07-17T15:27:43Z,42.805,6.029,13.2980,4.59978,2469.821,2019-7-17T17:28:01Z
2019-07-17T15:30:46Z,42.805,6.029,13.2970,4.59986,2469.806,2019-7-17T17:31:04Z
2019-07-17T15:33:49Z,42.805,6.029,13.2991,4.59981,2469.806,2019-7-17T17:34:08Z
2019-07-17T15:36:52Z,42.805,6.029,13.2968,4.59982,2469.783,2019-7-17T17:37:11Z
2019-07-17T15:39:55Z,42.805,6.029,13.2984,4.59975,2469.806,2019-7-17T17:40:14Z
2019-07-17T15:42:59Z,42.805,6.029,13.2976,4.59984,2469.821,2019-7-17T17:43:17Z
2019-07-17T15:46:02Z,42.805,6.029,13.2977,4.59982,2469.797,2019-7-17T17:46:20Z
2019-07-17T15:49:05Z,42.805,6.029,13.2986,4.59979,2469.821,2019-7-17T17:49:24Z
2019-07-17T15:52:08Z,42.805,6.029,13.2982,4.59976,2469.844,2019-7-17T17:52:27Z
2019-07-17T15:55:11Z,42.805,6.029,13.2974,4.59980,2469.83,2019-7-17T17:55:30Z
2019-07-17T15:58:15Z,42.805,6.029,13.2978,4.59991,2469.83,2019-7-17T17:58:33Z
2019-07-17T16:01:18Z,42.805,6.029,13.2979,4.59981,2469.844,2019-7-17T18:01:36Z
2019-07-17T16:04:21Z,42.805,6.029,13.2968,4.59985,2469.806,2019-7-17T18:04:40Z
2019-07-17T16:07:24Z,42.805,6.029,13.2973,4.60001,2469.858,2019-7-17T18:07:43Z
2019-07-17T16:10:27Z,42.805,6.029,13.2995,4.59980,2469.806,2019-7-17T18:10:46Z
2019-07-17T16:13:31Z,42.805,6.029,13.2960,4.59981,2469.853,2019-7-17T18:13:49Z
2019-07-17T16:16:34Z,42.805,6.029,13.2974,4.60001,2469.844,2019-7-17T18:16:53Z
2019-07-17T16:19:38Z,42.805,6.029,13.2970,4.59976,2469.876,2019-7-17T18:19:56Z
2019-07-17T16:22:41Z,42.805,6.029,13.2965,4.59979,2469.853,2019-7-17T18:22:59Z
2019-07-17T16:25:44Z,42.805,6.029,13.2967,4.59978,2469.89,2019-7-17T18:26:03Z
2019-07-17T16:28:47Z,42.805,6.029,13.2976,4.59971,2469.867,2019-7-17T18:29:06Z
2019-07-17T16:31:50Z,42.805,6.029,13.2974,4.59978,2469.876,2019-7-17T18:32:09Z
2019-07-17T16:34:54Z,42.805,6.029,13.2974,4.59998,2469.867,2019-7-17T18:35:12Z
2019-07-17T16:37:57Z,42.805,6.029,13.2973,4.59994,2469.83,2019-7-17T18:38:15Z
2019-07-17T16:41:00Z,42.805,6.029,13.2979,4.60015,2469.867,2019-7-17T18:41:19Z
2019-07-17T16:44:03Z,42.805,6.029,13.2973,4.59984,2469.867,2019-7-17T18:44:22Z
2019-07-17T16:47:06Z,42.805,6.029,13.2974,4.59982,2469.867,2019-7-17T18:47:25Z
2019-07-17T16:50:10Z,42.805,6.029,13.2981,4.59973,2469.876,2019-7-17T18:50:28Z
2019-07-17T16:53:13Z,42.805,6.029,13.2991,4.59994,2469.89,2019-7-17T18:53:31Z
2019-07-17T16:56:16Z,42.805,6.029,13.2986,4.59990,2469.876,2019-7-17T18:56:35Z
2019-07-17T16:59:20Z,42.805,6.029,13.2979,4.59989,2469.89,2019-7-17T18:59:38Z
2019-07-17T17:02:23Z,42.805,6.029,13.2977,4.59985,2469.914,2019-7-17T19:02:41Z
2019-07-17T17:05:26Z,42.805,6.029,13.2977,4.59976,2469.937,2019-7-17T19:05:44Z
2019-07-17T17:08:29Z,42.805,6.029,13.2967,4.59976,2469.89,2019-7-17T19:08:48Z
2019-07-17T17:11:32Z,42.805,6.029,13.2974,4.59967,2469.914,2019-7-17T19:11:51Z
2019-07-17T17:14:36Z,42.805,6.029,13.2975,4.59976,2469.9,2019-7-17T19:14:54Z
2019-07-17T17:17:39Z,42.805,6.029,13.2983,4.59984,2469.937,2019-7-17T19:17:57Z
2019-07-17T17:20:42Z,42.805,6.029,13.2976,4.59985,2469.9,2019-7-17T19:21:01Z
2019-07-17T17:23:45Z,42.805,6.029,13.2977,4.59999,2469.923,2019-7-17T19:24:04Z
2019-07-17T17:26:48Z,42.805,6.029,13.3006,4.60038,2469.9,2019-7-17T19:27:07Z
2019-07-17T17:29:52Z,42.805,6.029,13.2979,4.60011,2469.914,2019-7-17T19:30:10Z
2019-07-17T17:32:55Z,42.805,6.029,13.2967,4.59984,2469.914,2019-7-17T19:33:13Z
2019-07-17T17:35:58Z,42.805,6.029,13.2991,4.59981,2469.9,2019-7-17T19:36:17Z
2019-07-17T17:39:01Z,42.805,6.029,13.2990,4.59981,2469.96,2019-7-17T19:39:20Z
2019-07-17T17:42:05Z,42.805,6.029,13.2975,4.59997,2469.923,2019-7-17T19:42:23Z
2019-07-17T17:45:08Z,42.805,6.029,13.2984,4.59971,2469.937,2019-7-17T19:45:26Z
2019-07-17T17:48:11Z,42.805,6.029,13.2974,4.59972,2469.993,2019-7-17T19:48:29Z
2019-07-17T17:51:14Z,42.805,6.029,13.2975,4.60006,2469.923,2019-7-17T19:51:33Z
2019-07-17T17:54:17Z,42.805,6.029,13.2968,4.59980,2469.96,2019-7-17T19:54:36Z
2019-07-17T17:57:21Z,42.805,6.029,13.2982,4.59983,2469.97,2019-7-17T19:57:39Z
2019-07-17T18:00:24Z,42.805,6.029,13.2976,4.59982,2469.96,2019-7-17T20:00:42Z
2019-07-17T18:03:27Z,42.805,6.029,13.2975,4.60003,2469.97,2019-7-17T20:03:46Z
2019-07-17T18:06:30Z,42.805,6.029,13.2966,4.59981,2469.947,2019-7-17T20:06:49Z
2019-07-17T18:09:33Z,42.805,6.029,13.2986,4.59996,2469.947,2019-7-17T20:09:52Z
2019-07-17T18:12:37Z,42.805,6.029,13.2975,4.59981,2469.947,2019-7-17T20:12:55Z
2019-07-17T18:15:40Z,42.805,6.029,13.2980,4.59978,2470.007,2019-7-17T20:15:58Z
2019-07-17T18:18:43Z,42.805,6.029,13.2967,4.59983,2469.947,2019-7-17T20:19:02Z
2019-07-17T18:21:46Z,42.805,6.029,13.2961,4.59990,2469.993,2019-7-17T20:22:05Z
2019-07-17T18:24:50Z,42.805,6.029,13.2983,4.60002,2470.017,2019-7-17T20:25:08Z
2019-07-17T18:27:53Z,42.805,6.029,13.3004,4.59986,2470.021,2019-7-17T20:28:11Z
2019-07-17T18:30:56Z,42.805,6.029,13.2996,4.59988,2469.96,2019-7-17T20:31:15Z
2019-07-17T18:33:59Z,42.805,6.029,13.2985,4.59999,2469.984,2019-7-17T20:34:18Z
2019-07-17T18:37:02Z,42.805,6.029,13.3000,4.59973,2469.984,2019-7-17T20:37:21Z
2019-07-17T18:40:06Z,42.805,6.029,13.2973,4.59975,2469.96,2019-7-17T20:40:24Z
2019-07-17T18:43:09Z,42.805,6.029,13.2982,4.59978,2469.993,2019-7-17T20:43:27Z
2019-07-17T18:46:12Z,42.805,6.029,13.2967,4.59987,2469.984,2019-7-17T20:46:31Z
2019-07-17T18:49:15Z,42.805,6.029,13.2965,4.59986,2470.03,2019-7-17T20:49:34Z
2019-07-17T18:52:19Z,42.805,6.029,13.2974,4.59980,2470.007,2019-7-17T20:52:37Z
2019-07-17T18:55:23Z,42.805,6.029,13.2967,4.59988,2469.993,2019-7-17T20:55:41Z
2019-07-17T18:58:26Z,42.805,6.029,13.2986,4.59998,2469.97,2019-7-17T20:58:44Z
2019-07-17T19:01:29Z,42.805,6.029,13.2994,4.60001,2470.017,2019-7-17T21:01:48Z
2019-07-17T19:04:32Z,42.805,6.029,13.2986,4.59991,2469.993,2019-7-17T21:04:51Z
2019-07-17T19:07:36Z,42.805,6.029,13.2972,4.59976,2469.97,2019-7-17T21:07:54Z
2019-07-17T19:10:39Z,42.805,6.029,13.2967,4.59976,2469.97,2019-7-17T21:10:57Z
2019-07-17T19:13:42Z,42.805,6.029,13.2966,4.59984,2470.03,2019-7-17T21:14:01Z
2019-07-17T19:16:45Z,42.805,6.029,13.2976,4.59961,2470.017,2019-7-17T21:17:04Z
2019-07-17T19:19:48Z,42.805,6.029,13.2971,4.59969,2470.03,2019-7-17T21:20:07Z
2019-07-17T19:22:52Z,42.805,6.029,13.2976,4.59970,2470.007,2019-7-17T21:23:10Z
2019-07-17T19:25:55Z,42.805,6.029,13.2971,4.59980,2470.007,2019-7-17T21:26:13Z
2019-07-17T19:28:58Z,42.805,6.029,13.2982,4.59989,2470.017,2019-7-17T21:29:17Z
2019-07-17T19:32:01Z,42.805,6.029,13.2976,4.59988,2470.007,2019-7-17T21:32:20Z
2019-07-17T19:35:05Z,42.805,6.029,13.2985,4.59986,2470.007,2019-7-17T21:35:23Z
2019-07-17T19:38:08Z,42.805,6.029,13.2975,4.59974,2470.017,2019-7-17T21:38:26Z
2019-07-17T19:41:11Z,42.805,6.029,13.2976,4.59983,2470.03,2019-7-17T21:41:30Z
2019-07-17T19:44:14Z,42.805,6.029,13.2978,4.59991,2470.04,2019-7-17T21:44:33Z
2019-07-17T19:47:18Z,42.805,6.029,13.2967,4.59999,2470.017,2019-7-17T21:47:36Z
2019-07-17T19:50:21Z,42.805,6.029,13.2975,4.60013,2470.007,2019-7-17T21:50:39Z
2019-07-17T19:53:24Z,42.805,6.029,13.2981,4.59993,2470.04,2019-7-17T21:53:43Z
2019-07-17T19:56:27Z,42.805,6.029,13.2991,4.60009,2470.017,2019-7-17T21:56:46Z
2019-07-17T19:59:31Z,42.805,6.029,13.2989,4.60012,2470.053,2019-7-17T21:59:49Z
2019-07-17T20:02:34Z,42.805,6.029,13.3022,4.59996,2470.017,2019-7-17T22:02:52Z
2019-07-17T20:05:37Z,42.805,6.029,13.2973,4.60028,2470.017,2019-7-17T22:05:55Z
2019-07-17T20:08:40Z,42.805,6.029,13.3000,4.60003,2470.053,2019-7-17T22:08:59Z
2019-07-17T20:11:43Z,42.805,6.029,13.3008,4.60000,2470.053,2019-7-17T22:12:02Z
2019-07-17T20:14:47Z,42.805,6.029,13.2993,4.59999,2470.04,2019-7-17T22:15:05Z
2019-07-17T20:17:50Z,42.805,6.029,13.2993,4.59976,2470.053,2019-7-17T22:18:08Z
2019-07-17T20:20:53Z,42.805,6.029,13.2976,4.59999,2470.03,2019-7-17T22:21:12Z
2019-07-17T20:23:56Z,42.805,6.029,13.2990,4.60007,2470.053,2019-7-17T22:24:15Z
2019-07-17T20:26:59Z,42.805,6.029,13.3000,4.60021,2470.03,2019-7-17T22:27:18Z
2019-07-17T20:30:03Z,42.805,6.029,13.2995,4.60014,2470.04,2019-7-17T22:30:21Z
2019-07-17T20:33:06Z,42.805,6.029,13.2986,4.60020,2470.053,2019-7-17T22:33:24Z
2019-07-17T20:36:09Z,42.805,6.029,13.3008,4.60001,2470.044,2019-7-17T22:36:28Z
2019-07-17T20:39:12Z,42.805,6.029,13.2979,4.59988,2470.017,2019-7-17T22:39:31Z
2019-07-17T20:42:16Z,42.805,6.029,13.2988,4.60015,2470.017,2019-7-17T22:42:34Z
2019-07-17T20:45:19Z,42.805,6.029,13.2991,4.60018,2470.077,2019-7-17T22:45:37Z
2019-07-17T20:48:22Z,42.805,6.029,13.3017,4.60016,2470.017,2019-7-17T22:48:41Z
2019-07-17T20:51:25Z,42.805,6.029,13.3017,4.60033,2470.017,2019-7-17T22:51:44Z
2019-07-17T20:54:29Z,42.805,6.029,13.3010,4.60043,2470.053,2019-7-17T22:54:47Z
2019-07-17T20:57:32Z,42.805,6.029,13.2982,4.60007,2470.03,2019-7-17T22:57:50Z
2019-07-17T21:00:35Z,42.805,6.029,13.2991,4.60006,2469.993,2019-7-17T23:00:54Z
2019-07-17T21:03:38Z,42.805,6.029,13.3005,4.60061,2470.053,2019-7-17T23:03:57Z
2019-07-17T21:06:42Z,42.805,6.029,13.3014,4.60071,2470.017,2019-7-17T23:07:00Z
2019-07-17T21:09:45Z,42.805,6.029,13.3020,4.60025,2470.017,2019-7-17T23:10:03Z
2019-07-17T21:12:48Z,42.805,6.029,13.3014,4.60032,2470.03,2019-7-17T23:13:07Z
2019-07-17T21:15:51Z,42.805,6.029,13.2989,4.60047,2470.077,2019-7-17T23:16:10Z
2019-07-17T21:18:54Z,42.805,6.029,13.3000,4.60028,2470.017,2019-7-17T23:19:13Z
2019-07-17T21:21:58Z,42.805,6.029,13.3012,4.60010,2469.993,2019-7-17T23:22:16Z
2019-07-17T21:25:01Z,42.805,6.029,13.3004,4.60046,2470.007,2019-7-17T23:25:19Z
2019-07-17T21:28:04Z,42.805,6.029,13.3022,4.60002,2470.017,2019-7-17T23:28:23Z
2019-07-17T21:31:07Z,42.805,6.029,13.2992,4.60023,2470.017,2019-7-17T23:31:26Z
2019-07-17T21:34:11Z,42.805,6.029,13.2979,4.60024,2469.993,2019-7-17T23:34:29Z
2019-07-17T21:37:14Z,42.805,6.029,13.2990,4.60025,2469.993,2019-7-17T23:37:32Z
2019-07-17T21:40:17Z,42.805,6.029,13.2980,4.60016,2470.03,2019-7-17T23:40:36Z
2019-07-17T21:43:21Z,42.805,6.029,13.2984,4.60014,2470.007,2019-7-17T23:43:39Z
2019-07-17T21:46:24Z,42.805,6.029,13.2996,4.60019,2470.03,2019-7-17T23:46:43Z
2019-07-17T21:49:27Z,42.805,6.029,13.2998,4.59998,2470.03,2019-7-17T23:49:46Z
2019-07-17T21:52:30Z,42.805,6.029,13.2993,4.60043,2470.007,2019-7-17T23:52:49Z
2019-07-17T21:55:34Z,42.805,6.029,13.2993,4.60037,2470.017,2019-7-17T23:55:52Z
2019-07-17T21:58:37Z,42.805,6.029,13.2993,4.60029,2469.993,2019-7-17T23:58:55Z
2019-07-17T22:01:40Z,42.805,6.029,13.3012,4.60031,2469.993,2019-7-18T00:01:59Z
2019-07-17T22:04:43Z,42.805,6.029,13.3002,4.60009,2470.007,2019-7-18T00:05:02Z
2019-07-17T22:07:47Z,42.805,6.029,13.2980,4.60026,2470.007,2019-7-18T00:08:05Z
2019-07-17T22:10:50Z,42.805,6.029,13.2986,4.60034,2470.03,2019-7-18T00:11:08Z
2019-07-17T22:13:53Z,42.805,6.029,13.2981,4.60030,2470.03,2019-7-18T00:14:12Z
2019-07-17T22:16:56Z,42.805,6.029,13.2994,4.59994,2470.007,2019-7-18T00:17:15Z
2019-07-17T22:20:00Z,42.805,6.029,13.2965,4.59999,2470.007,2019-7-18T00:20:18Z
2019-07-17T22:23:03Z,42.805,6.029,13.2998,4.60031,2470.007,2019-7-18T00:23:21Z
2019-07-17T22:26:06Z,42.805,6.029,13.3002,4.60029,2469.993,2019-7-18T00:26:25Z
2019-07-17T22:29:09Z,42.805,6.029,13.2971,4.60019,2469.984,2019-7-18T00:29:28Z
2019-07-17T22:32:13Z,42.805,6.029,13.2987,4.60028,2469.984,2019-7-18T00:32:31Z
2019-07-17T22:35:16Z,42.805,6.029,13.2989,4.60020,2470.007,2019-7-18T00:35:34Z
2019-07-17T22:38:19Z,42.805,6.029,13.2993,4.60008,2469.947,2019-7-18T00:38:38Z
2019-07-17T22:41:22Z,42.805,6.029,13.2983,4.60025,2469.984,2019-7-18T00:41:41Z
2019-07-17T22:44:25Z,42.805,6.029,13.2996,4.59997,2469.993,2019-7-18T00:44:44Z
2019-07-17T22:47:29Z,42.805,6.029,13.2987,4.60020,2469.984,2019-7-18T00:47:47Z
2019-07-17T22:50:32Z,42.805,6.029,13.2984,4.60009,2469.993,2019-7-18T00:50:51Z
2019-07-17T22:53:35Z,42.805,6.029,13.2979,4.60011,2470.007,2019-7-18T00:53:54Z
2019-07-17T22:56:38Z,42.805,6.029,13.2982,4.60020,2469.97,2019-7-18T00:56:57Z
2019-07-17T22:59:42Z,42.805,6.029,13.2967,4.59989,2469.97,2019-7-18T01:00:00Z
2019-07-17T23:02:45Z,42.805,6.029,13.2961,4.59995,2469.984,2019-7-18T01:03:03Z
2019-07-17T23:05:48Z,42.805,6.029,13.2970,4.60014,2469.97,2019-7-18T01:06:07Z
2019-07-17T23:08:51Z,42.805,6.029,13.2981,4.60020,2469.923,2019-7-18T01:09:10Z
2019-07-17T23:11:54Z,42.805,6.029,13.2989,4.60006,2469.97,2019-7-18T01:12:13Z
2019-07-17T23:14:58Z,42.805,6.029,13.2992,4.60001,2469.947,2019-7-18T01:15:16Z
2019-07-17T23:18:01Z,42.805,6.029,13.3004,4.60015,2469.984,2019-7-18T01:18:19Z
2019-07-17T23:21:04Z,42.805,6.029,13.2992,4.60021,2469.96,2019-7-18T01:21:23Z
2019-07-17T23:24:07Z,42.805,6.029,13.2971,4.60020,2469.947,2019-7-18T01:24:26Z
2019-07-17T23:27:10Z,42.805,6.029,13.2967,4.60027,2469.96,2019-7-18T01:27:29Z
2019-07-17T23:30:14Z,42.805,6.029,13.2986,4.60011,2469.96,2019-7-18T01:30:32Z
2019-07-17T23:33:17Z,42.805,6.029,13.2993,4.60006,2469.947,2019-7-18T01:33:35Z
2019-07-17T23:36:20Z,42.805,6.029,13.2979,4.60009,2469.96,2019-7-18T01:36:39Z
2019-07-17T23:39:23Z,42.805,6.029,13.2980,4.60011,2469.947,2019-7-18T01:39:42Z
2019-07-17T23:42:27Z,42.805,6.029,13.2991,4.60004,2469.937,2019-7-18T01:42:46Z
2019-07-17T23:45:30Z,42.805,6.029,13.2975,4.60019,2469.923,2019-7-18T01:45:49Z
2019-07-17T23:48:33Z,42.805,6.029,13.2961,4.59983,2469.947,2019-7-18T01:48:52Z
2019-07-17T23:51:37Z,42.805,6.029,13.2964,4.59981,2469.96,2019-7-18T01:51:55Z
2019-07-17T23:54:40Z,42.805,6.029,13.2970,4.59979,2469.923,2019-7-18T01:54:58Z
2019-07-17T23:57:43Z,42.805,6.029,13.2959,4.59976,2469.923,2019-7-18T01:58:02Z
